START_TIME,STEP,MOV.,M6,t_acc.,M7,t_acc.,M19,t_acc.,H36,t_acc.
1981-08-25 09:00:28.080 ,1,0,0.,12.0,0.,12.0,0.,12.0,0.,12.0
1981-08-25 09:00:40.080 ,1,0,0.,12.0,0.,12.0,0.,12.0,0.,12.0
1981-08-25 09:00:52.080 ,2,1,0.,12.0,0.,12.0,0.,12.0,0.,12.0
1981-08-25 09:01:04.080 ,2,1,0.,12.0,0.,12.0,0.,12.0,0.,12.0
1981-08-25 09:01:16.080 ,2,0,0.,12.0,0.,12.0,0.,12.0,0.,12.0
1981-08-25 09:01:28.080 ,2,0,0.,12.0,0.,12.0,0.,12.0,0.,12.0
1981-08-25 09:01:40.080 ,3,1,0.,12.0,0.,12.0,0.,12.0,0.,12.0
1981-08-25 09:01:52.080 ,3,1,0.,12.0,0.,12.0,0.,12.0,0.,12.0
1981-08-25 09:02:04.080 ,3,0,0.,12.0,0.,12.0,0.,12.0,0.,12.0
1981-08-25 09:02:16.080 ,3,0,0.,12.0,0.,12.0,0.,12.0,0.,12.0
1981-08-25 09:02:28.080 ,4,1,0.,12.0,0.,12.0,0.,12.0,0.,12.0
1981-08-25 09:02:40.080 ,4,1,0.,12.0,0.,12.0,0.,12.0,0.,12.0
1981-08-25 09:02:52.080 ,4,0,0.,12.0,0.,12.0,0.,12.0,0.,12.0
1981-08-25 09:03:04.080 ,4,0,0.,12.0,0.,12.0,0.,12.0,0.,12.0
1981-08-25 09:03:16.080 ,5,1,0.,12.0,0.,12.0,0.,12.0,0.,12.0
1981-08-25 09:03:28.080 ,5,1,0.,12.0,0.,12.0,0.,12.0,0.,12.0
1981-08-25 09:03:40.080 ,5,0,0.,12.0,0.,12.0,0.,12.0,0.,12.0
1981-08-25 09:03:52.080 ,5,0,0.,12.0,0.,12.0,0.,12.0,0.,12.0
1981-08-25 09:04:04.080 ,6,1,0.,12.0,0.,12.0,0.,12.0,0.,12.0
1981-08-25 09:04:16.080 ,6,1,0.,12.0,0.,12.0,0.,12.0,0.,12.0
1981-08-25 09:04:28.080 ,6,0,0.,12.0,0.,12.0,0.,12.0,0.,12.0
1981-08-25 09:04:40.080 ,6,0,0.,12.0,0.,12.0,0.,12.0,0.,12.0
1981-08-25 09:04:52.080 ,7,1,0.,12.0,0.,12.0,0.,12.0,0.,12.0
1981-08-25 09:05:04.080 ,7,1,0.,12.0,0.,12.0,0.,12.0,0.,12.0
1981-08-25 09:05:16.080 ,7,0,0.,12.0,0.,12.0,0.,12.0,0.,12.0
1981-08-25 09:05:28.080 ,7,0,0.,12.0,0.,12.0,0.,12.0,0.,12.0
1981-08-25 09:05:40.080 ,7,1,0.,12.0,0.,12.0,0.,12.0,0.,12.0
1981-08-25 09:05:52.080 ,7,1,0.,12.0,0.,12.0,0.,12.0,0.,12.0
1981-08-25 09:06:04.080 ,7,0,0.,12.0,0.,12.0,0.,12.0,0.,12.0
1981-08-25 09:06:16.080 ,7,0,0.,12.0,0.,12.0,0.,12.0,0.,12.0
1981-08-25 09:06:28.080 ,6,1,0.,12.0,0.,12.0,0.,12.0,0.,12.0
1981-08-25 09:06:40.080 ,6,1,0.,12.0,0.,12.0,0.,12.0,0.,12.0
1981-08-25 09:06:52.080 ,6,0,0.,12.0,0.,12.0,0.,12.0,0.,12.0
1981-08-25 09:07:04.080 ,6,0,0.,12.0,0.,12.0,0.,12.0,0.,12.0
1981-08-25 09:07:16.080 ,5,1,0.,12.0,0.,12.0,0.,12.0,0.,12.0
1981-08-25 09:07:28.080 ,5,1,0.,12.0,0.,12.0,0.,12.0,0.,12.0
1981-08-25 09:07:40.080 ,5,0,0.,12.0,0.,12.0,0.,12.0,0.,12.0
1981-08-25 09:07:52.080 ,5,0,0.,12.0,0.,12.0,0.,12.0,0.,12.0
1981-08-25 09:08:04.080 ,4,1,0.,12.0,0.,12.0,0.,12.0,0.,12.0
1981-08-25 09:08:16.080 ,4,1,0.,12.0,0.,12.0,0.,12.0,0.,12.0
1981-08-25 09:08:28.080 ,4,0,0.,12.0,0.,12.0,0.,12.0,0.,12.0
1981-08-25 09:08:40.080 ,4,0,0.,12.0,0.,12.0,0.,12.0,0.,12.0
1981-08-25 09:08:52.080 ,3,1,0.,12.0,0.,12.0,0.,12.0,0.,12.0
1981-08-25 09:09:04.080 ,3,1,0.,12.0,0.,12.0,0.,12.0,0.,12.0
1981-08-25 09:09:16.080 ,3,0,0.,12.0,0.,12.0,0.,12.0,0.,12.0
1981-08-25 09:09:28.080 ,3,0,0.,12.0,0.,12.0,0.,12.0,0.,12.0
1981-08-25 09:09:40.080 ,2,1,0.,12.0,0.,12.0,0.,12.0,0.,12.0
1981-08-25 09:09:52.080 ,2,1,0.,12.0,0.,12.0,0.,12.0,0.,12.0
1981-08-25 09:10:04.080 ,2,0,0.,12.0,0.,12.0,0.,12.0,0.,12.0
1981-08-25 09:10:16.080 ,2,0,0.,12.0,0.,12.0,0.,12.0,0.,12.0
1981-08-25 09:10:28.080 ,1,1,0.,12.0,0.,12.0,0.,12.0,0.,12.0
1981-08-25 09:10:40.080 ,1,1,0.,12.0,0.,12.0,0.,12.0,0.,12.0
1981-08-25 09:10:52.080 ,1,0,0.,12.0,0.,12.0,0.,12.0,0.,12.0
1981-08-25 09:11:04.080 ,1,0,0.,12.0,0.,12.0,0.,12.0,0.,12.0
1981-08-25 09:11:16.080 ,0,1,0.,12.0,0.,12.0,0.,12.0,0.,12.0
1981-08-25 09:11:28.080 ,0,1,0.,12.0,0.,12.0,0.,12.0,0.,12.0
1981-08-25 09:11:40.080 ,0,0,0.,12.0,0.,12.0,0.,12.0,1.,12.0
1981-08-25 09:11:52.080 ,0,0,0.,12.0,0.,12.0,0.,12.0,0.,12.0
1981-08-25 09:12:04.080 ,0,1,0.,12.0,0.,12.0,0.,12.0,0.,12.0
1981-08-25 09:12:16.080 ,0,1,0.,12.0,0.,12.0,0.,12.0,0.,12.0
1981-08-25 09:12:28.080 ,0,0,0.,12.0,0.,12.0,0.,12.0,0.,12.0
1981-08-25 09:12:40.080 ,0,0,0.,12.0,0.,12.0,0.,12.0,0.,12.0
1981-08-25 09:12:52.080 ,1,1,0.,12.0,0.,12.0,0.,12.0,0.,12.0
1981-08-25 09:13:04.080 ,1,1,0.,12.0,0.,12.0,0.,12.0,0.,12.0
1981-08-25 09:13:16.080 ,1,0,0.,12.0,0.,12.0,0.,12.0,0.,12.0
1981-08-25 09:13:28.080 ,1,0,0.,12.0,0.,12.0,0.,12.0,0.,12.0
1981-08-25 09:13:40.080 ,2,1,0.,12.0,0.,12.0,0.,12.0,0.,12.0
1981-08-25 09:13:52.080 ,2,1,0.,12.0,0.,12.0,0.,12.0,0.,12.0
1981-08-25 09:14:04.080 ,2,0,0.,12.0,0.,12.0,0.,12.0,0.,12.0
1981-08-25 09:14:16.080 ,2,0,0.,12.0,0.,12.0,0.,12.0,0.,12.0
1981-08-25 09:14:28.080 ,3,1,0.,12.0,0.,12.0,0.,12.0,0.,12.0
1981-08-25 09:14:40.080 ,3,1,0.,12.0,0.,12.0,0.,12.0,0.,12.0
1981-08-25 09:14:52.080 ,3,0,0.,12.0,0.,12.0,0.,12.0,0.,12.0
1981-08-25 09:15:04.080 ,3,0,0.,12.0,0.,12.0,0.,12.0,0.,12.0
1981-08-25 09:15:16.080 ,4,1,0.,12.0,0.,12.0,0.,12.0,0.,12.0
1981-08-25 09:15:28.080 ,4,1,0.,12.0,0.,12.0,0.,12.0,0.,12.0
1981-08-25 09:15:40.080 ,4,0,0.,12.0,0.,12.0,0.,12.0,0.,12.0
1981-08-25 09:15:52.080 ,4,0,0.,12.0,0.,12.0,0.,12.0,0.,12.0
1981-08-25 09:16:04.080 ,5,1,0.,12.0,0.,12.0,0.,12.0,0.,12.0
1981-08-25 09:16:16.080 ,5,1,0.,12.0,0.,12.0,0.,12.0,0.,12.0
1981-08-25 09:16:28.080 ,5,0,0.,12.0,0.,12.0,0.,12.0,0.,12.0
1981-08-25 09:16:40.080 ,5,0,0.,12.0,0.,12.0,0.,12.0,0.,12.0
1981-08-25 09:16:52.080 ,6,1,0.,12.0,0.,12.0,0.,12.0,0.,12.0
1981-08-25 09:17:04.080 ,6,1,0.,12.0,0.,12.0,0.,12.0,0.,12.0
1981-08-25 09:17:16.080 ,6,0,0.,12.0,0.,12.0,0.,12.0,0.,12.0
1981-08-25 09:17:28.080 ,6,0,0.,12.0,0.,12.0,0.,12.0,0.,12.0
1981-08-25 09:17:40.080 ,7,1,0.,12.0,0.,12.0,0.,12.0,0.,12.0
1981-08-25 09:17:52.080 ,7,1,0.,12.0,0.,12.0,0.,12.0,0.,12.0
1981-08-25 09:18:04.080 ,7,0,0.,12.0,0.,12.0,0.,12.0,0.,12.0
1981-08-25 09:18:16.080 ,7,0,0.,12.0,0.,12.0,0.,12.0,0.,12.0
1981-08-25 09:18:28.080 ,7,1,0.,12.0,0.,12.0,0.,12.0,0.,12.0
1981-08-25 09:18:40.080 ,7,1,0.,12.0,0.,12.0,0.,12.0,0.,12.0
1981-08-25 09:18:52.080 ,7,0,0.,12.0,0.,12.0,0.,12.0,0.,12.0
1981-08-25 09:19:04.080 ,7,0,0.,12.0,0.,12.0,0.,12.0,0.,12.0
1981-08-25 09:19:16.080 ,6,1,0.,12.0,0.,12.0,0.,12.0,0.,12.0
1981-08-25 09:19:28.080 ,6,1,0.,12.0,0.,12.0,0.,12.0,0.,12.0
1981-08-25 09:19:40.080 ,6,0,0.,12.0,0.,12.0,0.,12.0,0.,12.0
1981-08-25 09:19:52.080 ,6,0,0.,12.0,0.,12.0,0.,12.0,0.,12.0
1981-08-25 09:20:04.080 ,5,1,0.,12.0,0.,12.0,0.,12.0,0.,12.0
1981-08-25 09:20:16.080 ,5,1,0.,12.0,0.,12.0,0.,12.0,0.,12.0
1981-08-25 09:20:28.080 ,5,0,0.,12.0,0.,12.0,0.,12.0,0.,12.0
1981-08-25 09:20:40.080 ,5,0,0.,12.0,0.,12.0,0.,12.0,0.,12.0
1981-08-25 09:20:52.080 ,4,1,0.,12.0,0.,12.0,0.,12.0,0.,12.0
1981-08-25 09:21:04.080 ,4,1,0.,12.0,0.,12.0,0.,12.0,0.,12.0
1981-08-25 09:21:16.080 ,4,0,0.,12.0,0.,12.0,0.,12.0,0.,12.0
1981-08-25 09:21:28.080 ,4,0,0.,12.0,0.,12.0,0.,12.0,0.,12.0
1981-08-25 09:21:40.080 ,3,1,0.,12.0,0.,12.0,0.,12.0,0.,12.0
1981-08-25 09:21:52.080 ,3,1,0.,12.0,0.,12.0,0.,12.0,0.,12.0
1981-08-25 09:22:04.080 ,3,0,0.,12.0,0.,12.0,0.,12.0,0.,12.0
1981-08-25 09:22:16.080 ,3,0,0.,12.0,0.,12.0,0.,12.0,0.,12.0
1981-08-25 09:22:28.080 ,2,1,0.,12.0,0.,12.0,0.,12.0,0.,12.0
1981-08-25 09:22:40.080 ,2,1,0.,12.0,0.,12.0,0.,12.0,0.,12.0
1981-08-25 09:22:52.080 ,2,0,0.,12.0,0.,12.0,0.,12.0,0.,12.0
1981-08-25 09:23:04.080 ,2,0,0.,12.0,0.,12.0,0.,12.0,0.,12.0
1981-08-25 09:23:16.080 ,1,1,0.,12.0,0.,12.0,0.,12.0,0.,12.0
1981-08-25 09:23:28.080 ,1,1,0.,12.0,0.,12.0,0.,12.0,0.,12.0
1981-08-25 09:23:40.080 ,1,0,0.,12.0,0.,12.0,0.,12.0,0.,12.0
1981-08-25 09:23:52.080 ,1,0,0.,12.0,0.,12.0,0.,12.0,0.,12.0
1981-08-25 09:24:04.080 ,0,1,0.,12.0,0.,12.0,0.,12.0,0.,12.0
1981-08-25 09:24:16.080 ,0,1,0.,12.0,0.,12.0,0.,12.0,0.,12.0
1981-08-25 09:24:28.080 ,0,0,0.,12.0,0.,12.0,0.,12.0,0.,12.0
1981-08-25 09:24:40.080 ,0,0,0.,12.0,0.,12.0,0.,12.0,0.,12.0
1981-08-25 09:24:52.080 ,0,1,0.,12.0,0.,12.0,0.,12.0,0.,12.0
1981-08-25 09:25:04.080 ,0,1,0.,12.0,0.,12.0,0.,12.0,0.,12.0
1981-08-25 09:25:16.080 ,0,0,0.,12.0,0.,12.0,0.,12.0,0.,12.0
1981-08-25 09:25:28.080 ,0,0,0.,12.0,0.,12.0,0.,12.0,0.,12.0
1981-08-25 09:25:40.080 ,1,1,0.,12.0,0.,12.0,0.,12.0,0.,12.0
1981-08-25 09:25:52.080 ,1,1,0.,12.0,0.,12.0,0.,12.0,0.,12.0
1981-08-25 09:26:04.080 ,1,0,0.,12.0,0.,12.0,0.,12.0,0.,12.0
1981-08-25 09:26:16.080 ,1,0,0.,12.0,0.,12.0,0.,12.0,0.,12.0
1981-08-25 09:26:28.080 ,2,1,0.,12.0,0.,12.0,0.,12.0,0.,12.0
1981-08-25 09:26:40.080 ,2,1,0.,12.0,0.,12.0,0.,12.0,0.,12.0
1981-08-25 09:26:52.080 ,2,0,0.,12.0,0.,12.0,0.,12.0,0.,12.0
1981-08-25 09:27:04.080 ,2,0,0.,12.0,0.,12.0,0.,12.0,0.,12.0
1981-08-25 09:27:16.080 ,3,1,0.,12.0,0.,12.0,0.,12.0,0.,12.0
1981-08-25 09:27:28.080 ,3,1,0.,12.0,0.,12.0,0.,12.0,0.,12.0
1981-08-25 09:27:40.080 ,3,0,0.,12.0,0.,12.0,0.,12.0,0.,12.0
1981-08-25 09:27:52.080 ,3,0,0.,12.0,0.,12.0,0.,12.0,0.,12.0
1981-08-25 09:28:04.080 ,4,1,0.,12.0,0.,12.0,0.,12.0,0.,12.0
1981-08-25 09:28:16.080 ,4,1,0.,12.0,0.,12.0,0.,12.0,0.,12.0
1981-08-25 09:28:28.080 ,4,0,0.,12.0,0.,12.0,0.,12.0,0.,12.0
1981-08-25 09:28:40.080 ,4,0,0.,12.0,0.,12.0,0.,12.0,0.,12.0
1981-08-25 09:28:52.080 ,5,1,0.,12.0,0.,12.0,0.,12.0,0.,12.0
1981-08-25 09:29:04.080 ,5,1,0.,12.0,0.,12.0,0.,12.0,0.,12.0
1981-08-25 09:29:16.080 ,5,0,0.,12.0,0.,12.0,0.,12.0,0.,12.0
1981-08-25 09:29:28.080 ,5,0,0.,12.0,0.,12.0,0.,12.0,0.,12.0
1981-08-25 09:29:40.080 ,6,1,0.,12.0,0.,12.0,0.,12.0,0.,12.0
1981-08-25 09:29:52.080 ,6,1,0.,12.0,0.,12.0,0.,12.0,0.,12.0
1981-08-25 09:30:04.080 ,6,0,0.,12.0,0.,12.0,0.,12.0,0.,12.0
1981-08-25 09:30:16.080 ,6,0,0.,12.0,0.,12.0,0.,12.0,0.,12.0
1981-08-25 09:30:28.080 ,7,1,0.,12.0,0.,12.0,0.,12.0,0.,12.0
1981-08-25 09:30:40.080 ,7,1,0.,12.0,0.,12.0,0.,12.0,0.,12.0
1981-08-25 09:30:52.080 ,7,0,0.,12.0,0.,12.0,0.,12.0,0.,12.0
1981-08-25 09:31:04.080 ,7,0,0.,12.0,0.,12.0,0.,12.0,0.,12.0
1981-08-25 09:31:16.080 ,7,1,0.,12.0,0.,12.0,0.,12.0,0.,12.0
1981-08-25 09:31:28.080 ,7,1,0.,12.0,0.,12.0,0.,12.0,0.,12.0
1981-08-25 09:31:40.080 ,7,0,0.,12.0,0.,12.0,0.,12.0,0.,12.0
1981-08-25 09:31:52.080 ,7,0,0.,12.0,0.,12.0,0.,12.0,0.,12.0
1981-08-25 09:32:04.080 ,6,1,0.,12.0,0.,12.0,0.,12.0,0.,12.0
1981-08-25 09:32:16.080 ,6,1,0.,12.0,0.,12.0,0.,12.0,0.,12.0
1981-08-25 09:32:28.080 ,6,0,0.,12.0,0.,12.0,0.,12.0,0.,12.0
1981-08-25 09:32:40.080 ,6,0,0.,12.0,0.,12.0,0.,12.0,0.,12.0
1981-08-25 09:32:52.080 ,5,1,0.,12.0,0.,12.0,0.,12.0,0.,12.0
1981-08-25 09:33:04.080 ,5,1,0.,12.0,0.,12.0,0.,12.0,0.,12.0
1981-08-25 09:33:16.080 ,5,0,0.,12.0,0.,12.0,0.,12.0,0.,12.0
1981-08-25 09:33:28.080 ,5,0,0.,12.0,0.,12.0,0.,12.0,0.,12.0
1981-08-25 09:33:40.080 ,4,1,0.,12.0,0.,12.0,0.,12.0,0.,12.0
1981-08-25 09:33:52.080 ,4,1,0.,12.0,0.,12.0,0.,12.0,0.,12.0
1981-08-25 09:34:04.080 ,4,0,0.,12.0,0.,12.0,0.,12.0,0.,12.0
1981-08-25 09:34:16.080 ,4,0,0.,12.0,0.,12.0,0.,12.0,0.,12.0
1981-08-25 09:34:28.080 ,0,0,,0,,0,,0,,0
1981-08-25 09:34:40.080 ,0,0,,0,,0,,0,,0
1981-08-25 09:34:52.080 ,0,0,,0,,0,,0,,0
1981-08-25 09:35:04.080 ,0,0,,0,,0,,0,,0
1981-08-25 09:34:52.080 ,3,0,0.,12.0,0.,12.0,0.,12.0,0.,12.0
1981-08-25 09:35:04.080 ,3,0,0.,12.0,0.,12.0,0.,12.0,0.,12.0
1981-08-25 09:35:16.080 ,2,1,0.,12.0,0.,12.0,0.,12.0,0.,12.0
1981-08-25 09:35:28.080 ,2,1,0.,12.0,0.,12.0,0.,12.0,0.,12.0
1981-08-25 09:35:40.080 ,2,0,0.,12.0,0.,12.0,0.,12.0,0.,12.0
1981-08-25 09:35:52.080 ,2,0,0.,12.0,0.,12.0,0.,12.0,0.,12.0
1981-08-25 09:36:04.080 ,1,1,0.,12.0,0.,12.0,0.,12.0,0.,12.0
1981-08-25 09:36:16.080 ,1,1,0.,12.0,0.,12.0,0.,12.0,0.,12.0
1981-08-25 09:36:28.080 ,1,0,0.,12.0,0.,12.0,0.,12.0,0.,12.0
1981-08-25 09:36:40.080 ,1,0,0.,12.0,0.,12.0,0.,12.0,0.,12.0
1981-08-25 09:36:52.080 ,0,1,0.,12.0,0.,12.0,0.,12.0,0.,12.0
1981-08-25 09:37:04.080 ,0,1,0.,12.0,0.,12.0,0.,12.0,0.,12.0
1981-08-25 09:37:16.080 ,0,0,0.,12.0,0.,12.0,0.,12.0,0.,12.0
1981-08-25 09:37:28.080 ,0,0,0.,12.0,0.,12.0,0.,12.0,0.,12.0
1981-08-25 09:38:28.080 ,0,0,0.,12.0,0.,12.0,0.,12.0,0.,12.0
1981-08-25 09:38:40.080 ,0,0,0.,12.0,0.,12.0,0.,12.0,0.,12.0
1981-08-25 09:38:52.080 ,0,0,0.,12.0,0.,12.0,0.,12.0,0.,12.0
1981-08-25 09:39:04.080 ,0,0,0.,12.0,0.,12.0,0.,12.0,0.,12.0
1981-08-25 09:39:16.080 ,2,1,0.,12.0,0.,12.0,0.,12.0,0.,12.0
1981-08-25 09:39:28.080 ,2,1,0.,12.0,0.,12.0,0.,12.0,0.,12.0
1981-08-25 09:39:40.080 ,2,0,0.,12.0,0.,12.0,0.,12.0,0.,12.0
1981-08-25 09:39:52.080 ,2,0,0.,12.0,0.,12.0,0.,12.0,0.,12.0
1981-08-25 09:40:04.080 ,3,1,0.,12.0,0.,12.0,0.,12.0,0.,12.0
1981-08-25 09:40:16.080 ,3,1,0.,12.0,0.,12.0,0.,12.0,0.,12.0
1981-08-25 09:40:28.080 ,3,0,0.,12.0,0.,12.0,0.,12.0,0.,12.0
1981-08-25 09:40:40.080 ,3,0,0.,12.0,0.,12.0,0.,12.0,0.,12.0
1981-08-25 09:40:52.080 ,4,1,0.,12.0,0.,12.0,0.,12.0,0.,12.0
1981-08-25 09:41:04.080 ,4,1,0.,12.0,0.,12.0,0.,12.0,0.,12.0
1981-08-25 09:41:16.080 ,4,0,0.,12.0,0.,12.0,0.,12.0,0.,12.0
1981-08-25 09:41:28.080 ,4,0,0.,12.0,0.,12.0,0.,12.0,0.,12.0
1981-08-25 09:41:40.080 ,5,1,0.,12.0,0.,12.0,0.,12.0,0.,12.0
1981-08-25 09:41:52.080 ,5,1,0.,12.0,0.,12.0,0.,12.0,0.,12.0
1981-08-25 09:42:04.080 ,5,0,0.,12.0,0.,12.0,0.,12.0,0.,12.0
1981-08-25 09:42:16.080 ,5,0,0.,12.0,0.,12.0,0.,12.0,0.,12.0
1981-08-25 09:42:28.080 ,6,1,0.,12.0,0.,12.0,0.,12.0,0.,12.0
1981-08-25 09:42:40.080 ,6,1,0.,12.0,0.,12.0,0.,12.0,0.,12.0
1981-08-25 09:42:52.080 ,6,0,0.,12.0,0.,12.0,0.,12.0,0.,12.0
1981-08-25 09:43:04.080 ,6,0,0.,12.0,0.,12.0,0.,12.0,0.,12.0
1981-08-25 09:43:16.080 ,7,1,0.,12.0,0.,12.0,0.,12.0,0.,12.0
1981-08-25 09:43:28.080 ,7,1,0.,12.0,0.,12.0,0.,12.0,0.,12.0
1981-08-25 09:43:40.080 ,7,0,0.,12.0,0.,12.0,0.,12.0,0.,12.0
1981-08-25 09:43:52.080 ,7,0,0.,12.0,0.,12.0,0.,12.0,0.,12.0
1981-08-25 09:44:04.080 ,7,1,0.,12.0,0.,12.0,0.,12.0,0.,12.0
1981-08-25 09:44:16.080 ,7,1,0.,12.0,0.,12.0,0.,12.0,0.,12.0
1981-08-25 09:44:28.080 ,7,0,0.,12.0,0.,12.0,0.,12.0,0.,12.0
1981-08-25 09:44:40.080 ,7,0,0.,12.0,0.,12.0,0.,12.0,0.,12.0
1981-08-25 09:44:52.080 ,6,1,0.,12.0,0.,12.0,0.,12.0,0.,12.0
1981-08-25 09:45:04.080 ,6,1,0.,12.0,0.,12.0,0.,12.0,0.,12.0
1981-08-25 09:45:16.080 ,6,0,0.,12.0,0.,12.0,0.,12.0,0.,12.0
1981-08-25 09:45:28.080 ,6,0,0.,12.0,0.,12.0,0.,12.0,0.,12.0
1981-08-25 09:45:40.080 ,5,1,0.,12.0,0.,12.0,0.,12.0,0.,12.0
1981-08-25 09:45:52.080 ,5,1,0.,12.0,0.,12.0,0.,12.0,0.,12.0
1981-08-25 09:46:04.080 ,5,0,0.,12.0,0.,12.0,0.,12.0,0.,12.0
1981-08-25 09:46:16.080 ,5,0,0.,12.0,0.,12.0,0.,12.0,0.,12.0
1981-08-25 09:46:28.080 ,4,1,0.,12.0,0.,12.0,0.,12.0,0.,12.0
1981-08-25 09:46:40.080 ,4,1,0.,12.0,0.,12.0,0.,12.0,0.,12.0
1981-08-25 09:46:52.080 ,4,0,0.,12.0,0.,12.0,0.,12.0,0.,12.0
1981-08-25 09:47:04.080 ,4,0,0.,12.0,0.,12.0,0.,12.0,0.,12.0
1981-08-25 09:47:16.080 ,3,1,0.,12.0,0.,12.0,0.,12.0,0.,12.0
1981-08-25 09:47:28.080 ,3,1,0.,12.0,0.,12.0,0.,12.0,0.,12.0
1981-08-25 09:47:40.080 ,3,0,0.,12.0,0.,12.0,0.,12.0,0.,12.0
1981-08-25 09:47:52.080 ,3,0,0.,12.0,0.,12.0,0.,12.0,0.,12.0
1981-08-25 09:48:04.080 ,2,1,0.,12.0,0.,12.0,0.,12.0,0.,12.0
1981-08-25 09:48:16.080 ,2,1,0.,12.0,0.,12.0,0.,12.0,0.,12.0
1981-08-25 09:48:28.080 ,2,0,0.,12.0,0.,12.0,0.,12.0,0.,12.0
1981-08-25 09:48:40.080 ,2,0,0.,12.0,0.,12.0,0.,12.0,0.,12.0
1981-08-25 09:48:52.080 ,1,1,0.,12.0,0.,12.0,0.,12.0,0.,12.0
1981-08-25 09:49:04.080 ,1,1,0.,12.0,0.,12.0,0.,12.0,0.,12.0
1981-08-25 09:49:16.080 ,1,0,0.,12.0,0.,12.0,0.,12.0,0.,12.0
1981-08-25 09:49:28.080 ,1,0,0.,12.0,0.,12.0,0.,12.0,0.,12.0
1981-08-25 09:49:40.080 ,0,1,0.,12.0,0.,12.0,0.,12.0,0.,12.0
1981-08-25 09:49:52.080 ,0,1,0.,12.0,0.,12.0,0.,12.0,0.,12.0
1981-08-25 09:50:04.080 ,0,0,0.,12.0,0.,12.0,0.,12.0,0.,12.0
1981-08-25 09:50:16.080 ,0,0,0.,12.0,0.,12.0,0.,12.0,0.,12.0
1981-08-25 09:50:28.080 ,0,1,0.,12.0,0.,12.0,0.,12.0,0.,12.0
1981-08-25 09:50:40.080 ,0,1,0.,12.0,0.,12.0,0.,12.0,0.,12.0
1981-08-25 09:50:52.080 ,0,0,0.,12.0,0.,12.0,0.,12.0,0.,12.0
1981-08-25 09:51:04.080 ,0,0,0.,12.0,0.,12.0,0.,12.0,0.,12.0
1981-08-25 09:51:16.080 ,1,1,0.,12.0,0.,12.0,0.,12.0,0.,12.0
1981-08-25 09:51:28.080 ,1,1,0.,12.0,0.,12.0,0.,12.0,0.,12.0
1981-08-25 09:51:40.080 ,1,0,0.,12.0,0.,12.0,0.,12.0,0.,12.0
1981-08-25 09:51:52.080 ,1,0,0.,12.0,0.,12.0,0.,12.0,0.,12.0
1981-08-25 09:52:04.080 ,2,1,0.,12.0,0.,12.0,0.,12.0,0.,12.0
1981-08-25 09:52:16.080 ,2,1,0.,12.0,0.,12.0,0.,12.0,0.,12.0
1981-08-25 09:52:28.080 ,2,0,0.,12.0,0.,12.0,0.,12.0,0.,12.0
1981-08-25 09:52:40.080 ,2,0,0.,12.0,0.,12.0,0.,12.0,0.,12.0
1981-08-25 09:52:52.080 ,3,1,0.,12.0,0.,12.0,0.,12.0,0.,12.0
1981-08-25 09:53:04.080 ,3,1,0.,12.0,0.,12.0,0.,12.0,0.,12.0
1981-08-25 09:53:16.080 ,3,0,0.,12.0,0.,12.0,0.,12.0,0.,12.0
1981-08-25 09:53:28.080 ,3,0,0.,12.0,0.,12.0,0.,12.0,0.,12.0
1981-08-25 09:53:40.080 ,4,1,0.,12.0,0.,12.0,0.,12.0,0.,12.0
1981-08-25 09:53:52.080 ,4,1,0.,12.0,0.,12.0,0.,12.0,0.,12.0
1981-08-25 09:54:04.080 ,4,0,0.,12.0,0.,12.0,0.,12.0,0.,12.0
1981-08-25 09:54:16.080 ,4,0,0.,12.0,0.,12.0,0.,12.0,0.,12.0
1981-08-25 09:54:28.080 ,5,1,0.,12.0,0.,12.0,0.,12.0,0.,12.0
1981-08-25 09:54:40.080 ,5,1,0.,12.0,0.,12.0,0.,12.0,0.,12.0
1981-08-25 09:54:52.080 ,5,0,0.,12.0,0.,12.0,0.,12.0,0.,12.0
1981-08-25 09:55:04.080 ,5,0,0.,12.0,0.,12.0,0.,12.0,0.,12.0
1981-08-25 09:55:16.080 ,6,1,0.,12.0,0.,12.0,0.,12.0,0.,12.0
1981-08-25 09:55:28.080 ,6,1,0.,12.0,0.,12.0,0.,12.0,0.,12.0
1981-08-25 09:55:40.080 ,6,0,0.,12.0,0.,12.0,0.,12.0,0.,12.0
1981-08-25 09:55:52.080 ,6,0,0.,12.0,0.,12.0,0.,12.0,0.,12.0
1981-08-25 09:56:04.080 ,7,1,0.,12.0,0.,12.0,0.,12.0,0.,12.0
1981-08-25 09:56:16.080 ,7,1,0.,12.0,0.,12.0,0.,12.0,0.,12.0
1981-08-25 09:56:28.080 ,7,0,0.,12.0,0.,12.0,0.,12.0,0.,12.0
1981-08-25 09:56:40.080 ,7,0,0.,12.0,0.,12.0,0.,12.0,0.,12.0
1981-08-25 09:56:52.080 ,7,1,0.,12.0,0.,12.0,0.,12.0,0.,12.0
1981-08-25 09:57:04.080 ,7,1,0.,12.0,0.,12.0,0.,12.0,0.,12.0
1981-08-25 09:57:16.080 ,7,0,0.,12.0,0.,12.0,0.,12.0,0.,12.0
1981-08-25 09:57:28.080 ,7,0,0.,12.0,0.,12.0,0.,12.0,0.,12.0
1981-08-25 09:57:40.080 ,6,1,0.,12.0,0.,12.0,0.,12.0,0.,12.0
1981-08-25 09:57:52.080 ,6,1,0.,12.0,0.,12.0,0.,12.0,0.,12.0
1981-08-25 09:58:04.080 ,6,0,0.,12.0,0.,12.0,0.,12.0,0.,12.0
1981-08-25 09:58:16.080 ,6,0,0.,12.0,0.,12.0,0.,12.0,0.,12.0
1981-08-25 09:58:28.080 ,5,1,0.,12.0,0.,12.0,0.,12.0,0.,12.0
1981-08-25 09:58:40.080 ,5,1,0.,12.0,0.,12.0,0.,12.0,0.,12.0
1981-08-25 09:58:52.080 ,5,0,0.,12.0,0.,12.0,0.,12.0,0.,12.0
1981-08-25 09:59:04.080 ,5,0,0.,12.0,0.,12.0,0.,12.0,0.,12.0
1981-08-25 09:59:16.080 ,4,1,0.,12.0,0.,12.0,0.,12.0,0.,12.0
1981-08-25 09:59:28.080 ,4,1,0.,12.0,0.,12.0,0.,12.0,0.,12.0
1981-08-25 09:59:40.080 ,4,0,0.,12.0,0.,12.0,0.,12.0,0.,12.0
1981-08-25 09:59:52.080 ,4,0,0.,12.0,0.,12.0,0.,12.0,0.,12.0
1981-08-25 10:00:04.080 ,3,1,0.,12.0,0.,12.0,0.,12.0,0.,12.0
1981-08-25 10:00:16.080 ,3,1,0.,12.0,0.,12.0,0.,12.0,0.,12.0
1981-08-25 10:00:28.080 ,3,0,0.,12.0,0.,12.0,0.,12.0,0.,12.0
1981-08-25 10:00:40.080 ,3,0,0.,12.0,0.,12.0,0.,12.0,0.,12.0
1981-08-25 10:00:52.080 ,2,1,0.,12.0,0.,12.0,0.,12.0,0.,12.0
1981-08-25 10:01:04.080 ,2,1,0.,12.0,0.,12.0,0.,12.0,0.,12.0
1981-08-25 10:01:16.080 ,2,0,0.,12.0,0.,12.0,0.,12.0,0.,12.0
1981-08-25 10:01:28.080 ,2,0,0.,12.0,0.,12.0,0.,12.0,0.,12.0
1981-08-25 10:01:40.080 ,1,1,0.,12.0,0.,12.0,0.,12.0,0.,12.0
1981-08-25 10:01:52.080 ,1,1,0.,12.0,0.,12.0,0.,12.0,0.,12.0
1981-08-25 10:02:04.080 ,1,0,0.,12.0,0.,12.0,0.,12.0,0.,12.0
1981-08-25 10:02:16.080 ,1,0,0.,12.0,0.,12.0,0.,12.0,0.,12.0
1981-08-25 10:02:28.080 ,0,1,0.,12.0,0.,12.0,0.,12.0,0.,12.0
1981-08-25 10:02:40.080 ,0,1,0.,12.0,0.,12.0,0.,12.0,0.,12.0
1981-08-25 10:02:52.080 ,0,0,0.,12.0,0.,12.0,0.,12.0,0.,12.0
1981-08-25 10:03:04.080 ,0,0,0.,12.0,0.,12.0,0.,12.0,0.,12.0
1981-08-25 10:03:16.080 ,0,1,0.,12.0,0.,12.0,0.,12.0,0.,12.0
1981-08-25 10:03:28.080 ,0,1,0.,12.0,0.,12.0,0.,12.0,0.,12.0
1981-08-25 10:03:40.080 ,0,0,0.,12.0,0.,12.0,0.,12.0,0.,12.0
1981-08-25 10:03:52.080 ,0,0,0.,12.0,0.,12.0,0.,12.0,0.,12.0
1981-08-25 10:04:04.080 ,1,1,0.,12.0,0.,12.0,0.,12.0,0.,12.0
1981-08-25 10:04:16.080 ,1,1,0.,12.0,0.,12.0,0.,12.0,0.,12.0
1981-08-25 10:04:28.080 ,1,0,0.,12.0,0.,12.0,0.,12.0,0.,12.0
1981-08-25 10:04:40.080 ,1,0,0.,12.0,0.,12.0,0.,12.0,0.,12.0
1981-08-25 10:04:52.080 ,2,1,0.,12.0,0.,12.0,0.,12.0,0.,12.0
1981-08-25 10:05:04.080 ,2,1,0.,12.0,0.,12.0,0.,12.0,0.,12.0
1981-08-25 10:05:16.080 ,0,0,0.,12.0,0.,12.0,0.,12.0,0.,12.0
1981-08-25 10:05:28.080 ,0,0,0.,12.0,0.,12.0,0.,12.0,0.,12.0
1981-08-25 10:05:44.880 ,0,0,,0,,0,,0,,0
1981-08-25 10:05:56.880 ,0,0,0.,12.0,0.,12.0,0.,12.0,0.,12.0
1981-08-25 10:06:04.080 ,0,0,0.,12.0,0.,12.0,0.,12.0,0.,12.0
1981-08-25 10:06:16.080 ,0,0,0.,12.0,0.,12.0,0.,12.0,0.,12.0
1981-08-25 10:06:28.070 ,4,1,0.,12.0,0.,12.0,0.,12.0,0.,12.0
1981-08-25 10:06:40.070 ,4,1,0.,12.0,0.,12.0,0.,12.0,0.,12.0
1981-08-25 10:06:52.070 ,4,0,0.,12.0,0.,12.0,0.,12.0,0.,12.0
1981-08-25 10:07:04.070 ,4,0,0.,12.0,0.,12.0,0.,12.0,0.,12.0
1981-08-25 10:07:16.070 ,5,1,0.,12.0,0.,12.0,0.,12.0,0.,12.0
1981-08-25 10:07:28.070 ,5,1,0.,12.0,0.,12.0,0.,12.0,0.,12.0
1981-08-25 10:07:40.070 ,5,0,0.,12.0,0.,12.0,0.,12.0,0.,12.0
1981-08-25 10:07:52.070 ,5,0,0.,12.0,0.,12.0,0.,12.0,0.,12.0
1981-08-25 10:08:04.070 ,6,1,0.,12.0,0.,12.0,0.,12.0,0.,12.0
1981-08-25 10:08:16.070 ,6,1,0.,12.0,0.,12.0,0.,12.0,0.,12.0
1981-08-25 10:08:28.070 ,6,0,0.,12.0,0.,12.0,0.,12.0,0.,12.0
1981-08-25 10:08:40.070 ,6,0,0.,12.0,0.,12.0,0.,12.0,0.,12.0
1981-08-25 10:08:52.070 ,7,1,0.,12.0,0.,12.0,0.,12.0,0.,12.0
1981-08-25 10:09:04.070 ,7,1,0.,12.0,0.,12.0,0.,12.0,0.,12.0
1981-08-25 10:09:16.070 ,7,0,0.,12.0,0.,12.0,0.,12.0,0.,12.0
1981-08-25 10:09:28.070 ,7,0,0.,12.0,0.,12.0,0.,12.0,0.,12.0
1981-08-25 10:09:40.070 ,7,1,0.,12.0,0.,12.0,0.,12.0,0.,12.0
1981-08-25 10:09:52.070 ,7,1,0.,12.0,0.,12.0,0.,12.0,0.,12.0
1981-08-25 10:10:04.070 ,7,0,0.,12.0,0.,12.0,0.,12.0,0.,12.0
1981-08-25 10:10:16.070 ,7,0,0.,12.0,0.,12.0,0.,12.0,0.,12.0
1981-08-25 10:10:28.070 ,6,1,0.,12.0,0.,12.0,0.,12.0,0.,12.0
1981-08-25 10:10:40.070 ,6,1,0.,12.0,0.,12.0,0.,12.0,0.,12.0
1981-08-25 10:10:52.070 ,6,0,0.,12.0,0.,12.0,0.,12.0,0.,12.0
1981-08-25 10:11:04.070 ,6,0,0.,12.0,0.,12.0,0.,12.0,0.,12.0
1981-08-25 10:11:16.070 ,5,1,0.,12.0,0.,12.0,0.,12.0,0.,12.0
1981-08-25 10:11:28.070 ,5,1,0.,12.0,0.,12.0,0.,12.0,0.,12.0
1981-08-25 10:11:40.070 ,5,0,0.,12.0,0.,12.0,0.,12.0,0.,12.0
1981-08-25 10:11:52.070 ,5,0,0.,12.0,0.,12.0,0.,12.0,0.,12.0
1981-08-25 10:12:04.070 ,4,1,0.,12.0,0.,12.0,0.,12.0,0.,12.0
1981-08-25 10:12:16.070 ,4,1,0.,12.0,0.,12.0,0.,12.0,0.,12.0
1981-08-25 10:12:28.070 ,4,0,0.,12.0,0.,12.0,0.,12.0,0.,12.0
1981-08-25 10:12:40.070 ,4,0,0.,12.0,0.,12.0,0.,12.0,0.,12.0
1981-08-25 10:12:52.070 ,3,1,0.,12.0,0.,12.0,0.,12.0,0.,12.0
1981-08-25 10:13:04.070 ,3,1,0.,12.0,0.,12.0,0.,12.0,0.,12.0
1981-08-25 10:13:16.070 ,3,0,0.,12.0,0.,12.0,0.,12.0,0.,12.0
1981-08-25 10:13:28.070 ,3,0,0.,12.0,0.,12.0,0.,12.0,0.,12.0
1981-08-25 10:13:40.070 ,2,1,0.,12.0,0.,12.0,0.,12.0,0.,12.0
1981-08-25 10:13:52.070 ,2,1,0.,12.0,0.,12.0,0.,12.0,0.,12.0
1981-08-25 10:14:04.070 ,2,0,0.,12.0,0.,12.0,0.,12.0,0.,12.0
1981-08-25 10:14:16.070 ,2,0,0.,12.0,0.,12.0,0.,12.0,0.,12.0
1981-08-25 10:14:28.070 ,1,1,0.,12.0,0.,12.0,0.,12.0,0.,12.0
1981-08-25 10:14:40.070 ,1,1,0.,12.0,0.,12.0,0.,12.0,0.,12.0
1981-08-25 10:14:52.070 ,1,0,0.,12.0,0.,12.0,0.,12.0,0.,12.0
1981-08-25 10:15:04.070 ,1,0,0.,12.0,0.,12.0,0.,12.0,0.,12.0
1981-08-25 10:15:16.070 ,0,1,0.,12.0,0.,12.0,0.,12.0,0.,12.0
1981-08-25 10:15:28.070 ,0,1,0.,12.0,0.,12.0,0.,12.0,0.,12.0
1981-08-25 10:15:40.070 ,0,0,0.,12.0,0.,12.0,0.,12.0,0.,12.0
1981-08-25 10:15:52.070 ,0,0,0.,12.0,0.,12.0,0.,12.0,0.,12.0
1981-08-25 10:16:04.070 ,0,1,0.,12.0,0.,12.0,0.,12.0,0.,12.0
1981-08-25 10:16:16.070 ,0,1,0.,12.0,0.,12.0,0.,12.0,0.,12.0
1981-08-25 10:16:28.070 ,0,0,0.,12.0,0.,12.0,0.,12.0,0.,12.0
1981-08-25 10:16:40.070 ,0,0,0.,12.0,0.,12.0,0.,12.0,0.,12.0
1981-08-25 10:16:52.070 ,1,1,0.,12.0,0.,12.0,0.,12.0,0.,12.0
1981-08-25 10:17:04.070 ,1,1,0.,12.0,0.,12.0,0.,12.0,0.,12.0
1981-08-25 10:17:16.070 ,1,0,0.,12.0,0.,12.0,0.,12.0,0.,12.0
1981-08-25 10:17:28.070 ,1,0,0.,12.0,0.,12.0,0.,12.0,0.,12.0
1981-08-25 10:17:40.070 ,2,1,0.,12.0,0.,12.0,0.,12.0,0.,12.0
1981-08-25 10:17:52.070 ,2,1,0.,12.0,0.,12.0,0.,12.0,0.,12.0
1981-08-25 10:18:04.070 ,2,0,0.,12.0,0.,12.0,0.,12.0,0.,12.0